Panama City, FL

11:48 PM CDT on October 16, 2017 (GMT -0500)
Northwest Florida Beaches International

Weather History for KECP - January, 2014

Change the Weather History Date:

Saturday, January 25, 2014

  Actual Average Record
Temperature  
Mean Temperature 45 °F -  
Max Temperature 55 °F - 75 °F (2017)
Min Temperature 34 °F - 33 °F (2015)
Degree Days  
Heating Degree Days 20    
Cooling Degree Days 0    
Moisture  
Dew Point 37 °F    
Average Humidity 70    
Maximum Humidity 92    
Minimum Humidity 48    
Precipitation  
Precipitation 0.00 in - 0.15 in (2011)
Month to date precipitation  
Year to date precipitation  
Sea Level Pressure  
Sea Level Pressure 30.16 in    
Wind  
Wind Speed 3 mph (WSW)    
Max Wind Speed 15 mph    
Max Gust Speed 20 mph    
Visibility 10 miles    
Events      
T = Trace of Precipitation, MM = Missing Value Source: NWS Daily Summary

Daily Weather History Graph

Daily Weather History Graph

Search for Another Location

Airport or City:

Trip Planner

Search our weather history database for the weather conditions in past years. The results will help you decide how hot, cold, wet, or windy it might be!

Date:

Astronomy

Jan. 25, 2014 Rise Set
Actual Time 7:37 AM EST 6:13 PM EST
Civil Twilight 7:12 AM EST 6:39 PM EST
Nautical Twilight 6:43 AM EST 7:08 PM EST
Astronomical Twilight 6:14 AM EST 7:36 PM EST
Moon 2:10 AM EST (1/25) 1:13 PM EST (1/25)
Length of Visible Light 11h 27m
Length of Day
10h 36m
Waning Crescent, 34% of the Moon is Illuminated
Jan 25
Waning Crescent
Jan 30
New
Feb 6
First Quarter
Feb 14
Full
Feb 22
Last Quarter

Hourly Weather History & Observations

Time (EST) Temp. Windchill Dew Point Humidity Pressure Visibility Wind Dir Wind Speed Gust Speed Precip Events Conditions
12:53 AM 36.0 °F - 27.0 °F 70% 30.35 in 10.0 mi Calm Calm - N/A   Overcast
1:53 AM 36.0 °F - 24.1 °F 62% 30.32 in 10.0 mi Calm Calm - N/A   Overcast
2:53 AM 37.9 °F - 19.9 °F 48% 30.31 in 10.0 mi Calm Calm - N/A   Overcast
3:53 AM 37.9 °F - 26.1 °F 62% 30.29 in 10.0 mi Calm Calm - N/A   Overcast
4:53 AM 37.9 °F - 25.0 °F 60% 30.26 in 10.0 mi Calm Calm - N/A   Overcast
5:53 AM 37.0 °F - 26.1 °F 65% 30.25 in 10.0 mi Calm Calm - N/A   Mostly Cloudy
6:53 AM 37.9 °F - 28.0 °F 68% 30.25 in 10.0 mi Calm Calm - N/A   Overcast
7:53 AM 39.9 °F - 28.9 °F 65% 30.24 in 10.0 mi Calm Calm - N/A   Overcast
8:53 AM 41.0 °F - 32.0 °F 70% 30.23 in 10.0 mi Calm Calm - N/A   Overcast
9:53 AM 44.1 °F 42.5 °F 34.0 °F 68% 30.23 in 10.0 mi NW 3.5 mph - N/A   Overcast
10:53 AM 46.9 °F - 37.0 °F 68% 30.23 in 10.0 mi West 8.1 mph - N/A   Overcast
11:53 AM 48.0 °F - 39.0 °F 71% 30.20 in 10.0 mi West 4.6 mph - N/A   Overcast
12:53 PM 51.1 °F - 42.1 °F 71% 30.16 in 10.0 mi WSW 8.1 mph - N/A   Overcast
1:53 PM 53.1 °F - 44.1 °F 71% 30.12 in 10.0 mi WSW 10.4 mph - N/A   Overcast
2:53 PM 52.0 °F - 44.1 °F 74% 30.09 in 10.0 mi WNW 9.2 mph - N/A   Overcast
3:11 PM 51.8 °F - 44.6 °F 76% 30.04 in 10.0 mi West 9.2 mph - N/A   Overcast
3:53 PM 52.0 °F - 45.0 °F 77% 30.06 in 10.0 mi SW 5.8 mph - N/A   Overcast
4:53 PM 54.0 °F - 48.0 °F 80% 30.05 in 10.0 mi SW 8.1 mph - N/A   Mostly Cloudy
5:53 PM 54.0 °F - 48.0 °F 80% 30.06 in 10.0 mi SW 9.2 mph - N/A   Overcast
6:42 PM 53.6 °F - 46.4 °F 77% 30.02 in 10.0 mi WSW 9.2 mph - N/A   Scattered Clouds
6:53 PM 53.1 °F - 46.9 °F 80% 30.06 in 10.0 mi SW 8.1 mph - N/A   Partly Cloudy
7:53 PM 51.1 °F - 46.0 °F 83% 30.06 in 10.0 mi SW 6.9 mph - N/A   Clear
8:53 PM 50.0 °F - 43.0 °F 77% 30.06 in 10.0 mi SSW 5.8 mph - N/A   Clear
9:53 PM 45.0 °F 43.5 °F 39.9 °F 82% 30.09 in 10.0 mi NW 3.5 mph - N/A   Clear
10:53 PM 43.0 °F - 39.0 °F 86% 30.09 in 10.0 mi Calm Calm - N/A   Clear
11:53 PM 37.9 °F 34.4 °F 36.0 °F 93% 30.08 in 10.0 mi WNW 4.6 mph - N/A   Clear